User: anonymous   Login
Location: Arthez
(43.0833°N, 0.2500°W)
Time: 23:27:35
(UTC+00:00)
Language:

SPACEBEE-73 - Orbit

View from above orbital plane
View from above orbital plane
View from above satellite
View from above satellite

Ground track
Ground track

The orbit data is extracted from the following two-line orbital elements,

1 48635U 21006FB  22222.08296558  .00021593  00000-0  89420-3 0  9994
2 48635  97.2050 268.0710 0014686  73.5085 286.7765 15.23838897 85545
Epoch (UTC): 10 August 2022 01:59:28
Eccentricity: 0.0014686
inclination: 97.2050°
perigee height: 484 km
apogee height: 504 km
right ascension of ascending node: 268.0710°
argument of perigee: 73.5085°
revolutions per day: 15.23838897
mean anomaly at epoch: 286.7765°
orbit number at epoch: 8554

The dashed part of the orbit path shows where the satellite is in the earth's shadow,  

DLR